Location: Moscow
(55.7500°N, 37.5830°E)
Time: 06:18:29
(UTC+03:00)

Envisat - Pass Details

Date: 23 October 2021
Orbit: 764 x 766 km, 98.2° (Epoch: 28 November)

Event Time Altitude Azimuth Distance (km) Brightness Sun altitude
Rises 06:11:11 0° 14° (NNE) 3,248 6.4 -9.8°
Reaches altitude 10° 06:13:30 10° 13° (NNE) 2,317 5.6 -9.5°
Maximum altitude 06:18:35 74° 290° (WNW) 800 3.0 -8.8°
Drops below altitude 10° 06:23:39 10° 205° (SSW) 2,300 5.3 -8.1°
Sets 06:25:57 0° 204° (SSW) 3,222 6.1 -7.8°
